Regional Weather Roundup
Issued by NWS Raleigh/Durham, NC

Home | Current Version | Previous Version | Text Only | Print | Product List | Glossary On
Versions: 1 2 3 4 5 6 7 8 9 10 11 12 13 14 15 16 17 18 19 20 21 22 23 24 25 26 27 28 29 30 31 32 33 34 35 36 37 38 39 40 41 42 43 44 45 46 47 48 49 50
000
ASUS42 KRAH 240510
RWRRAH
NORTH CAROLINA WEATHER ROUNDUP
NATIONAL WEATHER SERVICE RALEIGH NC
100 AM EDT SAT JUN 24 2017

NOTE: "FAIR" INDICATES FEW OR NO CLOUDS BELOW 12,000 FEET WITH NO
SIGNIFICANT WEATHER AND/OR OBSTRUCTIONS TO VISIBILITY.

NCZ001-053-055-056-065-067-240600-
WESTERN NORTH CAROLINA

CITY           SKY/WX    TMP DP  RH WIND       PRES   REMARKS
ASHEVILLE      CLOUDY    71  68  90 NE3       29.98S
JEFFERSON      CLOUDY    67  63  86 W16G25    29.96R
HICKORY        LGT RAIN  75  72  90 SW14      29.89R
RUTHERFORDTON  NOT AVBL
MOUNT AIRY     LGT RAIN  80  71  72 SW15G24   29.83S
BOONE          NOT AVBL
$$

NCZ021-022-025-041-071-084-088-240600-
CENTRAL NORTH CAROLINA

CITY           SKY/WX    TMP DP  RH WIND       PRES   REMARKS
CHARLOTTE      TSTM      76  72  87 W14G29    29.91R FOG
GREENSBORO     MOCLDY    80  74  81 SW22G30   29.83F
WINSTON-SALEM  CLOUDY    80  69  69 SW14G25   29.83F
RALEIGH-DURHAM PTCLDY    81  75  82 SW17G32   29.86S
FORT BRAGG     PTCLDY    80  73  80 S9G18     29.89F
FAYETTEVILLE   CLEAR     82  74  76 S18G26    29.90F
BURLINGTON     CLOUDY    81  74  79 S17G25    29.83F
LAURINBURG     PTCLDY    79  76  90 SW14      29.92F
$$

NCZ011-015-027-028-043-044-047-080-103-240600-
NORTHEASTERN NORTH CAROLINA

CITY           SKY/WX    TMP DP  RH WIND       PRES   REMARKS
ROCKY MT-WILSO MOCLDY    79  76  90 S14G21    29.87F
GREENVILLE     CLEAR     79  70  73 SW15G21   29.92S
WASHINGTON     CLEAR    N/A N/A N/A S10G17    29.91F
ELIZABETH CITY CLEAR     79  72  79 S20G26    29.86F
MANTEO         CLEAR     79  73  81 SW18G24   29.91F
CAPE HATTERAS  MOCLDY    80  75  84 SW15G28   29.95S
$$

NCZ078-087-090-091-093-098-101-240600-
SOUTHEASTERN NORTH CAROLINA

CITY           SKY/WX    TMP DP  RH WIND       PRES   REMARKS
LUMBERTON      CLEAR     78  73  84 SW12      29.92F
GOLDSBORO      CLEAR     78  77  96 S13       29.90R
KINSTON        CLEAR     78  70  76 S18G25    29.92F
KENANSVILLE    CLEAR     77  72  83 SW3       29.93F
NEW BERN       CLEAR     78  74  87 SW12      29.95S
CHERRY POINT   NOT AVBL
BEAUFORT       PTCLDY    80  78  94 SW18      29.97R
JACKSONVILLE   CLEAR     79  73  82 SW12G18   29.95S
WILMINGTON     CLEAR     79  74  84 SW22G31   29.97S
$$




USA.gov is the U.S. government's official web portal to all federal, state and local government web resources and services.